User: anonymous   Login
Location: Champignolles
(47.0543°N, 4.5663°E)
Time: 17:23:02
(UTC+00:00)
Language:

Cosmos 923 Rocket - Orbit

View from above orbital plane
View from above orbital plane
View from above satellite
View from above satellite

Ground track
Ground track

The orbit data is extracted from the following two-line orbital elements,

1 10121U 77059B   21136.73227444  .00000048  00000-0  25473-4 0  9996
2 10121  74.0495  29.5218 0018366  26.0085 334.1986 14.35985592294806
Epoch (UTC): 16 May 2021 17:34:28
Eccentricity: 0.0018366
inclination: 74.0495°
perigee height: 758 km
apogee height: 785 km
right ascension of ascending node: 29.5218°
argument of perigee: 26.0085°
revolutions per day: 14.35985592
mean anomaly at epoch: 334.1986°
orbit number at epoch: 29480

The dashed part of the orbit path shows where the satellite is in the earth's shadow,  

DLR